sat.trackr.live / text

‹ back to catalog

STARLINK-3740

NORAD 52265 · 2022-041E

PAYLOAD ACTIVE UNKNOWN

§ Identity

Operator
Country
US
Launch date
2022-04-21
Launch site
AFETR
Launch vehicle
Mass (kg)
RCS (m²)

Purposes: comms

External: N2YO · Heavens-Above · Gunter

§ Orbital elements

Epoch: 2026-05-25T05:05:05.743392Z

Period
95.44 min
Inclination
53.2139°
Eccentricity
0.0000950
Mean motion
15.08801655 rev/d
Perigee alt
539.2 km
Apogee alt
540.5 km
Semi-major
6,918.0 km
B*
6.5051e-4
RAAN
125.5997°
Arg perigee
85.7416°
Mean anomaly
274.3684°
Rev number
22,591

§ Raw data

STARLINK-37401 52265U 22041E   26145.21187203  .00010069  00000+0  65051-3 0  99962 52265  53.2139 125.5997 0000950  85.7416 274.3684 15.08801655225910

JSON: /api/v1/satellites/52265 · /tle

For live sub-satellite position, see the globe view (requires WebGL).

§ Visibility from observer

Set your observer location to see the next 7 days of passes ≥ 10°. The values pass through the URL so the page stays shareable.

No JS? Fill the form by hand. The geolocation button needs JavaScript.